GW7323 Weather Reports


time (UTC)temp
C
wind
direction
speed
KPH
gust
KPH
rain 1hr
cm
rain 24hr
cm
rain mn
cm
humidity
%
barometer
mb
20260509090043 12 307 8.0 11.3 0.00 0.28 0.00 92 1006.6
20260509085506 12 319 6.4 11.3 0.00 0.28 0.00 92 1006.7
20260509085009 12 309 8.0 11.3 0.00 0.28 0.00 92 1006.7
20260509084505 12 300 6.4 9.7 0.00 0.28 0.00 92 1006.7
20260509084004 12 308 4.8 8.0 0.00 0.28 0.00 91 1006.8
20260509083502 12 304 4.8 8.0 0.00 0.28 0.00 91 1006.8
20260509083016 12 25 3.2 11.3 0.00 0.28 0.00 91 1006.8
20260509082508 12 316 4.8 12.9 0.00 0.28 0.00 91 1006.6
20260509082009 12 298 6.4 12.9 0.00 0.28 0.00 91 1006.5
20260509081518 12 287 6.4 11.3 0.00 0.28 0.00 91 1006.5
20260509081009 12 292 4.8 11.3 0.00 0.28 0.00 91 1006.5
20260509080508 12 311 6.4 11.3 0.00 0.28 0.00 91 1006.6
20260509080018 12 316 4.8 11.3 0.00 0.28 0.00 91 1006.7
20260509075506 12 302 3.2 9.7 0.00 0.28 0.00 91 1006.7
20260509075011 12 321 4.8 11.3 0.00 0.28 0.00 91 1006.7
20260509074530 12 300 4.8 11.3 0.00 0.28 0.00 91 1006.8
20260509074006 12 323 6.4 11.3 0.00 0.28 0.00 91 1006.7
20260509073506 12 312 6.4 9.7 0.00 0.28 0.00 91 1006.8
20260509073006 12 311 4.8 9.7 0.00 0.28 0.00 91 1006.8
20260509072507 12 308 6.4 14.5 0.00 0.28 0.00 90 1006.8
20260509072004 12 311 8.0 14.5 0.00 0.28 0.00 90 1007.0
20260509071511 12 318 6.4 12.9 0.00 0.28 0.00 90 1007.1
20260509071005 12 32 6.4 12.9 0.00 0.28 0.00 90 1007.1
20260509070507 12 316 4.8 14.5 0.00 0.28 0.00 90 1007.2
20260509070016 12 347 6.4 14.5 0.00 0.28 0.00 90 1007.2
20260509065513 12 289 8.0 14.5 0.00 0.28 0.00 90 1007.1
20260509065009 12 290 9.7 14.5 0.00 0.28 0.00 90 1007.2
20260509064518 12 296 6.4 12.9 0.00 0.28 0.00 90 1007.3
20260509064010 12 306 8.0 11.3 0.00 0.28 0.00 90 1007.3
20260509063509 12 283 6.4 9.7 0.00 0.28 0.00 90 1007.4
20260509063020 12 300 8.0 9.7 0.00 0.28 0.00 90 1007.5
20260509062510 12 266 6.4 9.7 0.00 0.30 0.00 90 1007.7
20260509062003 12 284 3.2 8.0 0.00 0.33 0.00 90 1007.7
20260509061507 12 307 3.2 6.4 0.00 0.33 0.00 90 1007.8
20260509061002 12 328 1.6 6.4 0.00 0.33 0.00 89 1007.8
20260509060028 12 304 4.8 8.0 0.00 0.33 0.00 89 1007.8
20260509055510 12 334 3.2 8.0 0.00 0.33 0.00 89 1007.9
20260509055011 12 281 6.4 8.0 0.00 0.33 0.00 89 1007.9
20260509054527 12 333 1.6 6.4 0.00 0.33 0.00 89 1008.0
20260509054013 12 311 3.2 8.0 0.00 0.33 0.00 89 1008.1
20260509053511 12 348 1.6 8.0 0.00 0.33 0.00 89 1008.2
20260509053033 12 304 3.2 9.7 0.00 0.33 0.00 89 1008.1
20260509052513 12 296 4.8 9.7 0.00 0.33 0.00 88 1008.0
20260509052012 12 294 6.4 9.7 0.00 0.33 0.00 88 1007.9
20260509051525 12 284 8.0 9.7 0.00 0.33 0.00 89 1008.0
20260509051010 12 300 3.2 8.0 0.00 0.33 0.00 89 1007.9
20260509050516 12 293 3.2 14.5 0.00 0.33 0.00 88 1007.9
20260509050047 12 307 4.8 14.5 0.00 0.33 0.00 88 1008.0
20260509045508 12 302 9.7 14.5 0.00 0.33 0.00 88 1007.8
20260509045011 12 301 8.0 11.3 0.00 0.33 0.00 88 1007.9
20260509044534 12 2 3.2 6.4 0.00 0.33 0.00 88 1007.8
20260509044015 12 20 3.2 9.7 0.00 0.33 0.00 87 1007.8
20260509043512 12 333 3.2 11.3 0.00 0.33 0.00 87 1007.7
20260509043039 12 310 8.0 11.3 0.00 0.33 0.00 87 1007.8
20260509042508 12 298 6.4 9.7 0.00 0.33 0.00 88 1007.8
20260509042010 12 311 6.4 8.0 0.00 0.33 0.00 88 1007.9
20260509041525 12 290 4.8 8.0 0.00 0.33 0.00 88 1007.9
20260509041009 12 322 4.8 6.4 0.00 0.33 0.00 88 1007.9
20260509040513 12 316 3.2 4.8 0.00 0.33 0.00 88 1007.9
20260509040028 12 1 1.6 4.8 0.00 0.33 0.00 88 1008.0
20260509035510 12 354 1.6 6.4 0.00 0.33 0.33 88 1008.0
20260509035010 12 321 4.8 8.0 0.00 0.33 0.33 88 1008.0
20260509034530 12 313 4.8 8.0 0.00 0.33 0.33 88 1008.1
20260509034010 12 7 1.6 6.4 0.00 0.33 0.33 88 1008.1
20260509033517 12 337 3.2 8.0 0.00 0.33 0.33 88 1008.3
20260509033036 12 316 3.2 8.0 0.00 0.33 0.33 88 1008.3
20260509032516 12 340 4.8 8.0 0.00 0.33 0.33 88 1008.4
20260509032010 12 319 3.2 11.3 0.00 0.33 0.33 88 1008.3
20260509031527 12 297 4.8 11.3 0.00 0.33 0.33 88 1008.4
20260509031007 12 288 4.8 11.3 0.00 0.33 0.33 88 1008.5
20260509030514 13 283 6.4 11.3 0.00 0.33 0.33 88 1008.5
20260509030027 13 318 6.4 11.3 0.00 0.33 0.33 87 1008.5
20260509025508 13 304 6.4 11.3 0.00 0.33 0.33 87 1008.4
20260509025010 13 288 6.4 9.7 0.00 0.33 0.33 87 1008.4
20260509024529 13 307 6.4 9.7 0.00 0.33 0.33 87 1008.3
20260509024018 13 336 3.2 6.4 0.00 0.33 0.33 86 1008.2
20260509023511 13 313 4.8 8.0 0.00 0.33 0.33 86 1008.1
20260509023030 13 316 3.2 8.0 0.00 0.33 0.33 86 1008.1
20260509022511 13 289 3.2 8.0 0.00 0.33 0.33 86 1008.1
20260509022013 13 286 4.8 9.7 0.00 0.33 0.33 86 1008.1
20260509021530 13 304 3.2 9.7 0.00 0.33 0.33 86 1008.1
20260509021009 13 285 4.8 9.7 0.00 0.33 0.33 86 1008.1
20260509020507 13 312 3.2 9.7 0.00 0.33 0.33 85 1008.0
20260509020024 13 293 4.8 9.7 0.00 0.33 0.33 85 1008.1
20260509015507 13 304 6.4 9.7 0.00 0.33 0.33 85 1008.0
20260509015015 13 297 4.8 11.3 0.00 0.33 0.33 85 1008.0
20260509014528 13 319 4.8 11.3 0.00 0.33 0.33 85 1008.0
20260509014008 13 324 6.4 12.9 0.00 0.33 0.33 85 1008.0
20260509013511 13 330 8.0 12.9 0.00 0.33 0.33 85 1008.1
20260509013028 13 323 4.8 17.7 0.00 0.33 0.33 84 1008.1
20260509012512 13 285 6.4 17.7 0.00 0.33 0.33 84 1008.1
20260509012013 13 313 11.3 17.7 0.00 0.33 0.33 84 1008.1
20260509011531 13 318 8.0 16.1 0.00 0.33 0.33 84 1008.1
20260509011010 13 13 8.0 16.1 0.00 0.33 0.33 83 1008.1
20260509010513 13 315 8.0 12.9 0.00 0.33 0.33 83 1008.1
20260509010035 14 336 8.0 16.1 0.00 0.33 0.33 83 1008.1
20260509005511 14 330 9.7 16.1 0.00 0.33 0.33 83 1008.1
20260509005010 14 284 6.4 16.1 0.00 0.33 0.33 83 1008.1
20260509004524 14 319 6.4 16.1 0.00 0.33 0.33 83 1008.1
20260509004010 14 318 8.0 16.1 0.00 0.33 0.33 83 1008.1
20260509003512 14 316 8.0 17.7 0.00 0.33 0.33 83 1008.1
20260509003025 14 302 8.0 17.7 0.00 0.33 0.33 83 1008.1
20260509002514 14 340 9.7 16.1 0.00 0.33 0.33 83 1008.1
20260509002014 14 325 11.3 16.1 0.00 0.33 0.33 83 1008.1
20260509001527 14 349 8.0 16.1 0.00 0.33 0.33 82 1008.1
20260509001008 14 314 9.7 16.1 0.00 0.33 0.33 82 1008.1
20260509000511 14 316 9.7 16.1 0.00 0.33 0.33 82 1008.2
20260509000040 14 314 9.7 14.5 0.00 0.33 0.33 82 1008.2
20260508235509 14 323 6.4 16.1 0.00 0.33 0.33 82 1008.2
20260508235009 14 324 11.3 16.1 0.00 0.33 0.33 82 1008.3
20260508234519 14 301 6.4 12.9 0.00 0.33 0.33 82 1008.3
20260508234009 14 306 6.4 12.9 0.00 0.33 0.33 82 1008.3
20260508233507 14 292 9.7 14.5 0.00 0.33 0.33 82 1008.3
20260508233026 14 290 9.7 14.5 0.00 0.33 0.33 82 1008.3
20260508232508 14 316 9.7 12.9 0.00 0.33 0.33 82 1008.4
20260508232014 14 314 8.0 14.5 0.00 0.33 0.33 82 1008.4
20260508231526 14 309 6.4 14.5 0.00 0.33 0.33 82 1008.4
20260508231014 14 356 11.3 14.5 0.00 0.33 0.33 81 1008.5
20260508230510 14 306 8.0 14.5 0.00 0.33 0.33 81 1008.5
20260508230027 14 314 8.0 17.7 0.00 0.33 0.33 81 1008.5
20260508225509 14 295 9.7 17.7 0.00 0.33 0.33 81 1008.5
20260508225010 14 326 9.7 14.5 0.00 0.33 0.33 81 1008.6
20260508224548 14 323 9.7 16.1 0.00 0.33 0.33 80 1008.6
20260508224006 14 310 6.4 16.1 0.00 0.33 0.33 80 1008.6
20260508223509 14 323 8.0 12.9 0.00 0.33 0.33 80 1008.7
20260508223023 14 286 8.0 16.1 0.00 0.33 0.33 79 1008.6
20260508222508 14 326 6.4 16.1 0.00 0.33 0.33 79 1008.6
20260508222010 14 283 11.3 16.1 0.00 0.33 0.33 78 1008.7
20260508221533 14 280 9.7 14.5 0.00 0.33 0.33 79 1008.8
20260508221011 14 320 9.7 14.5 0.00 0.33 0.33 79 1008.7
20260508220510 15 320 8.0 12.9 0.00 0.33 0.33 79 1008.5
20260508220034 15 294 6.4 12.9 0.00 0.33 0.33 81 1008.5
20260508215510 15 281 6.4 12.9 0.00 0.33 0.33 81 1008.3
20260508215016 15 311 8.0 9.7 0.00 0.33 0.33 82 1008.5
20260508214538 15 295 6.4 12.9 0.00 0.33 0.33 82 1008.5
20260508214009 15 314 8.0 12.9 0.00 0.33 0.33 82 1008.8
20260508213513 15 316 6.4 11.3 0.00 0.33 0.33 84 1008.5
20260508213029 15 321 8.0 12.9 0.00 0.33 0.33 84 1008.4
20260508212508 14 282 8.0 12.9 0.00 0.33 0.33 85 1008.5
20260508212009 14 307 9.7 17.7 0.00 0.33 0.33 86 1008.4
20260508211526 14 308 11.3 17.7 0.00 0.33 0.33 87 1008.5
20260508211008 14 318 8.0 11.3 0.00 0.36 0.33 87 1008.5
20260508210509 14 295 6.4 9.7 0.03 0.36 0.33 88 1008.5
20260508210029 14 320 4.8 17.7 0.03 0.36 0.33 88 1008.5
20260508205510 14 304 3.2 17.7 0.03 0.36 0.33 88 1008.6
20260508205015 14 359 6.4 12.9 0.05 0.36 0.33 88 1008.7
20260508204534 13 263 4.8 16.1 0.08 0.36 0.33 88 1008.8
20260508204010 13 282 9.7 16.1 0.10 0.36 0.33 87 1008.8
20260508203519 13 266 9.7 14.5 0.13 0.36 0.33 87 1008.9
20260508203029 13 294 9.7 14.5 0.15 0.36 0.33 87 1009.0
20260508202511 13 245 8.0 19.3 0.20 0.36 0.33 88 1009.1
20260508202012 13 320 9.7 19.3 0.25 0.36 0.33 87 1009.2
20260508201521 13 276 12.9 19.3 0.25 0.36 0.33 87 1009.5
20260508201008 14 310 6.4 17.7 0.28 0.36 0.33 86 1009.6
20260508200509 14 328 9.7 17.7 0.25 0.33 0.30 85 1009.5
20260508200037 14 333 8.0 12.9 0.25 0.33 0.30 85 1009.4
20260508195509 14 274 8.0 14.5 0.25 0.33 0.30 84 1009.5
20260508195011 14 304 9.7 16.1 0.23 0.30 0.28 83 1009.6
20260508194527 14 285 9.7 16.1 0.20 0.28 0.25 83 1009.7
20260508194014 14 308 11.3 19.3 0.18 0.25 0.23 82 1009.7
20260508193511 15 323 11.3 19.3 0.15 0.23 0.20 80 1009.8
20260508193028 15 314 9.7 17.7 0.13 0.20 0.18 79 1009.9
20260508192517 15 316 8.0 17.7 0.08 0.15 0.13 78 1009.8
20260508192015 15 309 6.4 17.7 0.03 0.10 0.08 77 1009.9
20260508191533 15 316 11.3 17.7 0.03 0.10 0.08 75 1009.8
20260508191010 16 315 11.3 17.7 0.00 0.08 0.05 75 1009.9
20260508190513 16 283 9.7 16.1 0.00 0.08 0.05 74 1009.9
20260508190023 16 274 9.7 12.9 0.00 0.08 0.05 73 1010.0
20260508185509 16 297 4.8 9.7 0.00 0.08 0.05 71 1010.0
20260508185012 16 346 4.8 8.0 0.00 0.08 0.05 72 1010.2
20260508184529 16 339 4.8 9.7 0.00 0.08 0.05 71 1010.2
20260508184009 16 315 6.4 11.3 0.00 0.08 0.05 70 1010.1
20260508183511 16 359 4.8 11.3 0.00 0.08 0.05 71 1010.2
20260508183027 16 337 6.4 12.9 0.00 0.08 0.05 70 1010.3
20260508182509 16 32 3.2 12.9 0.00 0.08 0.05 69 1010.1
20260508182015 16 340 4.8 17.7 0.00 0.08 0.05 69 1010.1
20260508181530 16 359 9.7 17.7 0.00 0.08 0.05 68 1010.0
20260508181016 16 311 8.0 17.7 0.00 0.08 0.05 69 1010.0
20260508180510 16 274 8.0 20.9 0.00 0.08 0.05 70 1010.2
20260508180023 16 318 8.0 20.9 0.00 0.08 0.05 69 1010.4
20260508175509 16 311 9.7 30.6 0.00 0.08 0.05 69 1010.4
20260508175012 16 323 6.4 30.6 0.00 0.08 0.05 69 1010.6
20260508174526 17 343 14.5 30.6 0.00 0.08 0.05 67 1010.5
20260508174016 17 309 9.7 16.1 0.00 0.08 0.05 64 1010.2
20260508173510 17 7 4.8 19.3 0.00 0.08 0.05 63 1010.3
20260508173027 17 12 6.4 22.5 0.00 0.08 0.05 63 1010.3
20260508172510 17 15 12.9 22.5 0.00 0.08 0.05 62 1010.6
20260508172015 17 53 11.3 22.5 0.00 0.08 0.05 63 1010.6
20260508171534 17 311 12.9 25.7 0.00 0.08 0.05 62 1010.7
20260508171012 17 322 14.5 27.4 0.00 0.08 0.05 62 1010.7
20260508170510 17 350 12.9 27.4 0.00 0.08 0.05 61 1010.7
20260508170032 17 312 16.1 27.4 0.00 0.08 0.05 61 1010.7
20260508165509 17 307 14.5 24.1 0.00 0.08 0.05 60 1010.8
20260508165013 17 359 11.3 30.6 0.00 0.08 0.05 62 1010.9
20260508164524 17 339 11.3 30.6 0.00 0.08 0.05 62 1010.9
20260508164009 17 296 14.5 30.6 0.00 0.08 0.05 61 1011.0
20260508163512 17 308 19.3 24.1 0.00 0.08 0.05 60 1011.0
20260508163028 17 287 14.5 24.1 0.00 0.08 0.05 61 1011.0
20260508162510 17 325 14.5 24.1 0.00 0.08 0.05 60 1011.1
20260508162013 17 319 12.9 22.5 0.00 0.08 0.05 62 1011.2
20260508161536 16 307 11.3 24.1 0.00 0.08 0.05 63 1011.3
20260508161010 16 340 6.4 24.1 0.00 0.08 0.05 63 1011.3
20260508160514 16 314 11.3 17.7 0.00 0.08 0.05 63 1011.4
20260508160033 15 303 11.3 16.1 0.00 0.08 0.05 65 1011.4
20260508155511 15 291 8.0 16.1 0.00 0.08 0.05 65 1011.5
20260508155009 15 317 8.0 14.5 0.00 0.08 0.05 66 1011.5
20260508154522 15 344 6.4 14.5 0.00 0.08 0.05 66 1011.6
20260508154011 14 322 11.3 14.5 0.00 0.08 0.05 66 1011.6
20260508153511 14 278 9.7 17.7 0.00 0.08 0.05 66 1011.7
20260508153024 14 313 9.7 17.7 0.00 0.08 0.05 66 1011.7
20260508152507 13 296 9.7 16.1 0.00 0.08 0.05 66 1011.8
20260508152016 13 307 8.0 12.9 0.00 0.08 0.05 66 1011.9
20260508151526 13 274 8.0 12.9 0.00 0.08 0.05 66 1011.9
20260508151017 13 302 4.8 9.7 0.00 0.08 0.05 67 1011.9
20260508150513 13 318 6.4 12.9 0.00 0.08 0.05 67 1011.9
20260508150037 13 310 8.0 12.9 0.00 0.08 0.05 67 1012.0
20260508145510 13 332 6.4 11.3 0.00 0.08 0.05 67 1012.0
20260508145010 13 38 3.2 16.1 0.00 0.08 0.05 66 1012.0
20260508144539 13 311 8.0 16.1 0.00 0.08 0.05 65 1012.0
20260508144007 13 321 8.0 14.5 0.00 0.08 0.05 65 1012.0
20260508143507 13 325 9.7 14.5 0.00 0.08 0.05 66 1011.9
20260508143035 13 320 6.4 19.3 0.00 0.08 0.05 66 1011.9
20260508142507 13 305 9.7 19.3 0.00 0.08 0.05 65 1012.0
20260508142016 13 319 6.4 19.3 0.00 0.08 0.05 66 1012.1
20260508141528 12 354 11.3 19.3 0.00 0.08 0.05 66 1012.2
20260508141012 12 303 14.5 19.3 0.00 0.08 0.05 65 1012.4
20260508140513 12 309 11.3 22.5 0.00 0.08 0.05 65 1012.3
20260508140035 12 347 12.9 22.5 0.00 0.08 0.05 66 1012.2
20260508135512 12 301 12.9 20.9 0.00 0.08 0.05 67 1012.3
20260508135014 12 332 9.7 20.9 0.00 0.08 0.05 67 1012.3
20260508134532 12 318 8.0 14.5 0.00 0.08 0.05 68 1012.4
20260508134010 12 329 8.0 14.5 0.00 0.08 0.05 68 1012.5
20260508133511 12 310 4.8 14.5 0.00 0.08 0.05 69 1012.5
20260508133020 12 307 9.7 17.7 0.00 0.08 0.05 69 1012.6
20260508132506 12 322 9.7 17.7 0.00 0.08 0.05 68 1012.5
20260508132008 12 282 6.4 11.3 0.00 0.08 0.05 70 1012.6
20260508131525 11 290 9.7 11.3 0.00 0.08 0.05 70 1012.7
20260508131012 11 311 6.4 12.9 0.00 0.08 0.05 71 1012.6
20260508130510 11 293 6.4 12.9 0.00 0.08 0.05 71 1012.5
20260508130029 11 281 8.0 11.3 0.00 0.08 0.05 72 1012.6
20260508125509 11 300 6.4 11.3 0.00 0.08 0.05 72 1012.7
20260508125013 11 288 8.0 11.3 0.00 0.08 0.05 72 1012.6
20260508124527 11 278 8.0 12.9 0.00 0.08 0.05 71 1012.7
20260508124010 11 267 6.4 12.9 0.00 0.08 0.05 71 1012.7
20260508123514 11 251 8.0 14.5 0.00 0.08 0.05 71 1012.6
20260508123032 11 301 8.0 14.5 0.00 0.08 0.05 71 1012.5
20260508122507 11 290 8.0 12.9 0.00 0.08 0.05 72 1012.5
20260508122012 11 274 8.0 14.5 0.00 0.08 0.05 72 1012.6
20260508121525 11 286 9.7 14.5 0.00 0.08 0.05 72 1012.5
20260508121008 11 323 9.7 14.5 0.00 0.08 0.05 72 1012.5
20260508120506 11 296 9.7 14.5 0.00 0.08 0.05 73 1012.5
20260508120024 11 302 11.3 14.5 0.00 0.08 0.05 73 1012.5
20260508115511 11 287 6.4 9.7 0.00 0.08 0.05 74 1012.5
20260508115008 11 254 6.4 9.7 0.00 0.08 0.05 73 1012.4
20260508114533 10 311 6.4 9.7 0.00 0.08 0.05 74 1012.5
20260508114011 10 314 6.4 9.7 0.00 0.08 0.05 74 1012.5
20260508113510 10 283 6.4 9.7 0.00 0.08 0.05 75 1012.4
20260508113044 10 258 6.4 8.0 0.00 0.08 0.05 76 1012.4
20260508112509 10 303 1.6 9.7 0.00 0.08 0.05 77 1012.4
20260508112012 10 278 6.4 9.7 0.00 0.08 0.05 78 1012.4
20260508111530 10 277 4.8 9.7 0.00 0.08 0.05 79 1012.3
20260508111008 10 251 4.8 6.4 0.00 0.08 0.05 81 1012.4
20260508110512 10 266 1.6 3.2 0.00 0.08 0.05 83 1012.5
20260508110024 10 266 1.6 3.2 0.00 0.08 0.05 82 1012.4
20260508105510 10 266 0.0 4.8 0.00 0.08 0.05 81 1012.4
20260508105015 10 267 4.8 4.8 0.00 0.08 0.05 81 1012.4
20260508104523 10 206 3.2 4.8 0.00 0.08 0.05 81 1012.5
20260508104011 10 269 3.2 4.8 0.00 0.08 0.05 81 1012.5
20260508103512 10 298 3.2 4.8 0.00 0.08 0.05 81 1012.5
20260508103028 10 230 1.6 4.8 0.00 0.08 0.05 81 1012.5
20260508102512 10 231 0.0 4.8 0.00 0.08 0.05 81 1012.5
20260508102013 10 231 3.2 4.8 0.00 0.08 0.05 81 1012.4
20260508101537 10 199 3.2 3.2 0.00 0.08 0.05 82 1012.3
20260508101012 10 129 0.0 1.6 0.00 0.08 0.05 82 1012.5
20260508100507 10 129 0.0 1.6 0.00 0.08 0.05 82 1012.6
20260508100018 10 139 0.0 3.2 0.00 0.08 0.05 82 1012.6
20260508095515 10 139 0.0 3.2 0.00 0.08 0.05 81 1012.5
20260508095007 10 140 1.6 3.2 0.00 0.08 0.05 81 1012.5
20260508094524 10 127 0.0 3.2 0.00 0.08 0.05 80 1012.7
20260508094011 10 126 1.6 3.2 0.00 0.08 0.05 79 1012.6
20260508093511 11 101 0.0 1.6 0.00 0.08 0.05 79 1012.8
20260508093028 11 101 0.0 3.2 0.00 0.08 0.05 78 1012.8
20260508092509 11 101 1.6 3.2 0.00 0.08 0.05 77 1012.8
20260508092009 11 86 0.0 3.2 0.00 0.08 0.05 76 1012.8
20260508091529 11 86 0.0 4.8 0.00 0.08 0.05 74 1012.7
20260508091017 11 86 1.6 4.8 0.00 0.08 0.05 73 1012.7
20260508090517 11 55 1.6 4.8 0.00 0.08 0.05 73 1012.7